When you browse on this site, cookies collect data to enhance your experience and personalize the content and advertising you see.
Visit our Privacy Policy to learn more. By continuing to use the site, you agree to this use of cookies and data.
  • In Czech Republic
  • List of Countries
  • For 7 days
  • Water Temperature
  • Weather Map
  • Weather Widgets
  • user-avatar
    Login

    Hourly Weather Penkovo

    Today, 29 January, Wednesday

    Time Temperature Precipitation Wind Pressure Humidity
    00:00 -5°C° 0 mm 3 mps 744 mmHg 96%
    01:00 -4°C° 0 mm 3 mps 744 mmHg 96%
    02:00 -2°C° 0 mm 3 mps 744 mmHg 98%
    03:00 -2°C° 0 mm 3 mps 744 mmHg 97%
    04:00 -1°C° 0 mm 3 mps 743 mmHg 97%
    05:00 -1°C° 0 mm 3 mps 743 mmHg 96%
    06:00 -2°C° 0 mm 3 mps 743 mmHg 95%
    07:00 -4°C° 0 mm 3 mps 743 mmHg 95%
    08:00 -4°C° 0 mm 3 mps 743 mmHg 94%
    09:00 -4°C° 0 mm 3 mps 742 mmHg 94%
    10:00 -4°C° 0 mm 3 mps 742 mmHg 94%
    11:00 -2°C° 0 mm 3 mps 742 mmHg 93%
    12:00 -2°C° 0 mm 3 mps 742 mmHg 95%
    13:00 -1°C° 0 mm 3 mps 742 mmHg 97%
    14:00 -1°C° 0 mm 3 mps 741 mmHg 98%
    15:00 -1°C° 0 mm 4 mps 741 mmHg 98%
    16:00 -1°C° 0 mm 4 mps 741 mmHg 99%
    17:00 -1°C° 0 mm 4 mps 740 mmHg 99%
    18:00 -1°C° 0 mm 4 mps 740 mmHg 99%
    19:00 -1°C° 0 mm 4 mps 740 mmHg 99%
    20:00 0°C° 0 mm 3 mps 740 mmHg 98%
    21:00 -1°C° 0 mm 4 mps 739 mmHg 99%
    22:00 -1°C° 0 mm 4 mps 739 mmHg 99%
    23:00 -1°C° 0 mm 4 mps 738 mmHg 99%

    Tomorrow, 30 January, Thursday

    Time Temperature Precipitation Wind Pressure Humidity
    00:00 -1°C° 0.1 mm 4 mps 738 mmHg 99%
    01:00 0°C° 0.1 mm 4 mps 737 mmHg 98%
    02:00 0°C° 0.1 mm 4 mps 737 mmHg 98%
    03:00 0°C° 0 mm 5 mps 736 mmHg 98%
    04:00 0°C° 0 mm 5 mps 735 mmHg 99%
    05:00 -1°C° 0 mm 6 mps 734 mmHg 99%
    06:00 -2°C° 0.7 mm 6 mps 734 mmHg 98%
    07:00 -2°C° 0.7 mm 6 mps 734 mmHg 98%
    08:00 -2°C° 0.7 mm 6 mps 734 mmHg 98%
    09:00 -2°C° 0.2 mm 6 mps 734 mmHg 94%
    10:00 -2°C° 0.2 mm 6 mps 734 mmHg 91%
    11:00 -2°C° 0.2 mm 6 mps 734 mmHg 87%
    12:00 -2°C° 0 mm 6 mps 734 mmHg 86%
    13:00 -2°C° 0 mm 6 mps 734 mmHg 85%
    14:00 -2°C° 0 mm 6 mps 735 mmHg 84%
    15:00 -3°C° 0 mm 6 mps 734 mmHg 86%
    16:00 -3°C° 0 mm 7 mps 734 mmHg 87%
    17:00 -4°C° 0 mm 7 mps 734 mmHg 88%
    18:00 -3°C° 0.1 mm 7 mps 733 mmHg 90%
    19:00 -4°C° 0.1 mm 8 mps 733 mmHg 93%
    20:00 -4°C° 0.1 mm 8 mps 733 mmHg 95%
    21:00 -4°C° 0.4 mm 8 mps 732 mmHg 95%
    22:00 -3°C° 0.4 mm 7 mps 732 mmHg 96%
    23:00 -3°C° 0.4 mm 7 mps 732 mmHg 96%

    Day after tomorrow, 31 January, Friday

    Time Temperature Precipitation Wind Pressure Humidity
    00:00 -3°C° 0.3 mm 6 mps 732 mmHg 96%
    01:00 -3°C° 0.3 mm 6 mps 732 mmHg 96%
    02:00 -4°C° 0.3 mm 5 mps 732 mmHg 96%
    03:00 -4°C° 0.3 mm 5 mps 732 mmHg 96%
    04:00 -4°C° 0.3 mm 5 mps 732 mmHg 96%
    05:00 -4°C° 0.3 mm 5 mps 732 mmHg 96%
    06:00 -4°C° 0.2 mm 6 mps 732 mmHg 95%
    07:00 -4°C° 0.2 mm 6 mps 733 mmHg 95%
    08:00 -6°C° 0.2 mm 7 mps 733 mmHg 94%
    09:00 -4°C° 0.1 mm 6 mps 734 mmHg 93%
    10:00 -4°C° 0.1 mm 6 mps 734 mmHg 92%
    11:00 -4°C° 0.1 mm 6 mps 734 mmHg 91%
    12:00 -4°C° 0 mm 5 mps 735 mmHg 89%
    13:00 -2°C° 0 mm 5 mps 736 mmHg 88%
    14:00 -2°C° 0 mm 4 mps 736 mmHg 87%
    15:00 -2°C° 0.1 mm 4 mps 736 mmHg 89%
    16:00 -2°C° 0.1 mm 3 mps 737 mmHg 92%
    17:00 -2°C° 0.1 mm 2 mps 737 mmHg 95%
    18:00 -2°C° 0.1 mm 3 mps 737 mmHg 95%
    19:00 -2°C° 0.1 mm 3 mps 738 mmHg 95%
    20:00 -2°C° 0.1 mm 3 mps 738 mmHg 95%
    21:00 -4°C° 0.1 mm 3 mps 738 mmHg 95%
    22:00 -4°C° 0.1 mm 3 mps 739 mmHg 95%
    23:00 -4°C° 0.1 mm 3 mps 739 mmHg 94%

    1 February, Saturday

    Time Temperature Precipitation Wind Pressure Humidity
    00:00 -3°C° 0 mm 2 mps 739 mmHg 94%
    01:00 -3°C° 0 mm 2 mps 739 mmHg 93%
    02:00 -2°C° 0 mm 1 mps 740 mmHg 93%
    03:00 -2°C° 0 mm 1 mps 740 mmHg 93%
    04:00 -3°C° 0 mm 1 mps 740 mmHg 93%
    05:00 -3°C° 0 mm 1 mps 740 mmHg 93%
    06:00 -3°C° 0 mm 1 mps 740 mmHg 93%
    07:00 -3°C° 0 mm 1 mps 741 mmHg 94%
    08:00 -4°C° 0 mm 0 mps 741 mmHg 94%
    09:00 -3°C° 0 mm 0 mps 741 mmHg 93%
    10:00 -3°C° 0 mm 0 mps 742 mmHg 92%
    11:00 -2°C° 0 mm 0 mps 742 mmHg 91%
    12:00 -2°C° 0 mm 0 mps 742 mmHg 92%
    13:00 -2°C° 0 mm 0 mps 742 mmHg 92%
    14:00 -1°C° 0 mm 0 mps 743 mmHg 93%
    15:00 -2°C° 0 mm 0 mps 743 mmHg 93%
    16:00 -3°C° 0 mm 0 mps 743 mmHg 93%
    17:00 -4°C° 0 mm 0 mps 743 mmHg 93%
    18:00 -4°C° 0 mm 0 mps 743 mmHg 93%
    19:00 -4°C° 0 mm 1 mps 743 mmHg 93%
    20:00 -4°C° 0 mm 1 mps 744 mmHg 93%
    21:00 -4°C° 0 mm 1 mps 744 mmHg 93%
    22:00 -4°C° 0 mm 1 mps 744 mmHg 93%
    23:00 -6°C° 0 mm 2 mps 744 mmHg 93%

    2 February, Sunday

    Time Temperature Precipitation Wind Pressure Humidity
    00:00 -6°C° 0 mm 2 mps 744 mmHg 94%
    01:00 -5°C° 0 mm 2 mps 744 mmHg 95%
    02:00 -4°C° 0 mm 2 mps 744 mmHg 96%
    03:00 -5°C° 0 mm 3 mps 744 mmHg 95%
    04:00 -4°C° 0 mm 3 mps 743 mmHg 95%
    05:00 -4°C° 0 mm 4 mps 743 mmHg 95%
    06:00 -4°C° 0 mm 4 mps 743 mmHg 94%
    07:00 -3°C° 0 mm 4 mps 743 mmHg 94%
    08:00 -4°C° 0 mm 5 mps 742 mmHg 93%
    09:00 -4°C° 0 mm 5 mps 742 mmHg 93%
    10:00 -3°C° 0 mm 6 mps 742 mmHg 93%
    11:00 -2°C° 0 mm 7 mps 742 mmHg 92%
    12:00 -2°C° 0 mm 7 mps 741 mmHg 94%
    13:00 -2°C° 0 mm 7 mps 741 mmHg 96%
    14:00 -2°C° 0 mm 7 mps 740 mmHg 98%
    15:00 -1°C° 0.3 mm 7 mps 740 mmHg 98%
    16:00 -1°C° 0.3 mm 7 mps 739 mmHg 98%
    17:00 -1°C° 0.3 mm 7 mps 738 mmHg 98%
    18:00 -1°C° 0.6 mm 7 mps 738 mmHg 98%
    19:00 -1°C° 0.6 mm 7 mps 737 mmHg 98%
    20:00 -1°C° 0.6 mm 7 mps 737 mmHg 98%
    21:00 -1°C° 0.7 mm 6 mps 736 mmHg 98%
    22:00 -1°C° 0.7 mm 6 mps 736 mmHg 98%
    23:00 0°C° 0.7 mm 5 mps 736 mmHg 99%

    3 February, Monday

    Time Temperature Precipitation Wind Pressure Humidity
    00:00 0°C° 0.1 mm 5 mps 736 mmHg 98%
    01:00 0°C° 0.1 mm 5 mps 736 mmHg 97%
    02:00 0°C° 0.1 mm 4 mps 736 mmHg 96%
    03:00 0°C° 0 mm 5 mps 736 mmHg 96%
    04:00 -1°C° 0 mm 5 mps 736 mmHg 96%
    05:00 -1°C° 0 mm 5 mps 736 mmHg 96%
    06:00 -1°C° 0 mm 5 mps 736 mmHg 96%
    07:00 -1°C° 0 mm 4 mps 736 mmHg 97%
    08:00 -1°C° 0 mm 4 mps 736 mmHg 97%
    09:00 -1°C° 0.1 mm 4 mps 735 mmHg 98%
    10:00 -1°C° 0.1 mm 4 mps 735 mmHg 99%
    11:00 +1°C° 0.1 mm 3 mps 735 mmHg 99%
    12:00 0°C° 0.1 mm 4 mps 735 mmHg 99%
    13:00 0°C° 0.1 mm 4 mps 735 mmHg 99%
    14:00 0°C° 0.1 mm 4 mps 735 mmHg 99%
    15:00 -1°C° 0 mm 4 mps 735 mmHg 98%
    16:00 -1°C° 0 mm 4 mps 736 mmHg 97%
    17:00 -1°C° 0 mm 4 mps 736 mmHg 95%
    18:00 -2°C° 0 mm 4 mps 736 mmHg 94%
    19:00 -2°C° 0 mm 4 mps 736 mmHg 93%
    20:00 -3°C° 0 mm 4 mps 737 mmHg 92%
    21:00 -3°C° 0 mm 4 mps 737 mmHg 91%
    22:00 -4°C° 0 mm 4 mps 738 mmHg 91%
    23:00 -4°C° 0 mm 4 mps 738 mmHg 90%
    Show more